Vertical_Velocity
-1 -2 -2 -2 -2 -1 -2 -2 -2 -2 -2 -1 -1 -1 -1 -1 -1 -1 -1 -1 -1 -1 -1 -1 -1 -1 -1 -1 -1 -1 -1 -1 -1 -2 -2 -1 -1 -1 -1 -1 -1 -1 -1 -1 -1 -1 -1 -1 -1 -1 -1 -1 -1 -1 -1 -1 -1 -1 -1 -1 -1 -1 -1 -1 -0 -0 -1 -1 -1 -1 -2 -1 -1 -1 -0 1 1 1 -0 -0 -1 -2 -2 -2 -1 -0 0 1 1 1 1 1 1 1 1 0 -0 -0 -1 -0 -0 -1 -1
-2 -2 -2 -1 -1 -1 -1 -1 -1 -1 -1 -1 -1 -1 -1 -1 -1 -1 -1 -1 -1 -1 -1 -1 -1 -1 -1 -1 -1 -1 -1 -1 -2 -2 -1 -1 -1 -1 -1 -1 -1 -1 -1 -1 -1 -1 -1 -1 -1 -1 -1 -1 -1 -1 -1 -1 -1 -1 -1 -1 -1 -1 -1 -1 -1 -1 -1 -1 -1 -1 -2 -2 -2 -2 -1 0 1 1 1 2 1 -1 -1 -1 -1 -1 -1 -0 0 1 1 1 1 1 1 0 0 1 0 -0 -0 -1 -1
-2 -2 -2 -1 -1 -1 -1 -1 -1 -1 -1 -1 -1 -1 -1 -1 -1 -1 -1 -1 -1 -1 -1 -1 -1 -1 -1 -1 -1 -1 -1 -1 -1 -1 -1 -1 -1 -1 -1 -1 -1 -1 -1 -0 -0 -0 -0 -0 -0 -1 -1 -0 -0 -0 -0 -1 -1 -1 -2 -1 -1 -1 -1 -1 -1 -0 -1 -1 -2 -1 -1 -2 -2 -2 -2 -1 -1 1 3 3 2 1 -0 -1 -2 -2 -2 -1 -1 -1 -1 -0 -0 0 0 -0 -0 0 0 -0 -0 -0 -1
-2 -2 -2 -1 -1 -1 -1 -1 -1 -1 -1 -1 -1 -1 -1 -0 -0 0 -0 -0 -1 -1 -1 -1 -1 -1 -1 -1 -1 -1 -1 -1 -1 -1 -1 -1 -1 -1 -1 -0 -0 -0 -0 -0 -0 -0 -0 -0 -0 -0 -1 -0 -0 -0 -0 -1 -1 -1 -1 -2 -1 -1 -1 -1 -1 -1 -1 -2 -2 -2 -2 -2 -1 -1 -1 -1 -1 -1 -0 1 2 2 1 -0 -1 -1 -2 -2 -2 -1 -1 -1 -1 -1 -1 -1 -1 -1 -0 -0 -0 -0 -0
-2 -2 -2 -2 -1 -1 -1 -1 -1 -1 -1 -1 -1 -1 -0 0 0 0 0 -0 -0 -0 -0 -1 -1 -1 -1 -1 -1 -1 -1 -1 -1 -1 -1 -1 -1 -1 -1 -0 -0 -0 -0 -0 -0 -0 -0 -0 -0 -0 -0 -0 -0 -0 -0 -1 -1 -1 -1 -2 -2 -2 -1 -1 -1 -1 -2 -2 -2 -2 -2 -3 -2 -1 -0 -0 -0 0 0 1 1 1 1 1 0 -0 -1 -1 -1 -1 -1 -1 -1 -1 -1 -1 -1 -1 -1 -1 -0 -0 -0
-2 -2 -2 -2 -1 -1 -1 -1 -1 -1 -1 -1 -1 -1 -0 0 0 0 0 -0 -0 -0 -0 -1 -1 -1 -1 -1 -1 -1 -1 -1 -1 -1 -1 -1 -1 -1 -1 -0 -0 -0 -0 -0 -0 -0 -0 -0 -0 -0 -0 -0 -0 -1 -1 -1 -1 -1 -1 -1 -2 -2 -2 -2 -1 -1 -1 -0 -0 -1 -2 -3 -3 -2 -1 -0 0 1 0 0 0 -0 0 1 0 -0 -0 -1 -1 -1 -1 -1 -1 -1 -0 -0 -0 -0 -0 -0 -0 -0 -0
-2 -2 -2 -2 -2 -1 -1 -1 -1 -1 -1 -1 -1 -1 -1 -1 -1 -1 -1 -0 -0 -0 -0 -1 -1 -1 -1 -1 -1 -1 -1 -1 -1 -1 -1 -1 -0 -0 -0 -0 -0 -0 -0 -0 -0 0 0 0 -0 -0 -0 -0 -1 -1 -1 -1 -1 -1 -1 -1 -1 -1 -2 -2 -2 -1 -1 -1 -0 -0 -0 -1 -2 -2 -2 -2 -1 -0 -0 0 0 -0 -0 -0 -0 -1 -1 -1 -1 -1 -1 -1 -1 -1 -0 -0 0 0 0 0 0 0 -0
-3 -2 -2 -2 -2 -2 -2 -2 -2 -2 -2 -2 -2 -2 -2 -2 -2 -2 -2 -1 -1 -1 -1 -1 -1 -1 -1 -1 -1 -1 -1 -1 -1 -1 -1 -0 -0 0 0 0 0 -0 -0 -0 -0 -0 -0 -0 -0 -0 -0 -1 -1 -1 -1 -1 -1 -1 -1 -1 -1 -1 -1 -2 -2 -2 -2 -2 -1 -1 -0 0 0 -1 -3 -4 -4 -3 -2 -1 -1 -0 -0 -1 -1 -1 -2 -2 -2 -2 -2 -2 -1 -1 -1 -1 -0 -0 0 0 0 0 0
-3 -3 -3 -3 -3 -2 -2 -2 -2 -2 -2 -2 -2 -2 -2 -2 -3 -2 -2 -2 -2 -2 -2 -2 -1 -1 -1 -1 -2 -2 -2 -2 -1 -1 -1 -1 -0 -0 0 0 0 -0 -0 -0 -0 -0 -1 -1 -1 -1 -1 -1 -1 -1 -1 -1 -1 -2 -2 -1 -1 -1 -1 -1 -2 -2 -2 -2 -2 -2 -1 -1 -0 -0 -1 -3 -4 -4 -3 -3 -2 -2 -1 -1 -1 -1 -2 -2 -2 -2 -2 -2 -2 -2 -2 -1 -1 -1 -1 -1 -0 -0 -0
-2 -2 -2 -2 -2 -2 -2 -2 -2 -3 -3 -3 -2 -2 -2 -3 -3 -3 -3 -3 -2 -2 -2 -2 -2 -2 -2 -2 -2 -2 -2 -2 -2 -2 -2 -2 -2 -1 -1 -1 -1 -1 -1 -1 -1 -1 -1 -1 -1 -1 -1 -1 -1 -1 -1 -1 -1 -1 -2 -2 -1 -1 -1 -1 -1 -1 -2 -2 -2 -2 -2 -2 -1 -1 0 -1 -2 -3 -3 -4 -4 -3 -2 -1 -1 -1 -1 -1 -2 -2 -2 -3 -3 -3 -3 -2 -2 -2 -2 -1 -1 -1 -1
-0 -0 -0 -0 -1 -1 -1 -1 -2 -2 -2 -2 -2 -2 -2 -2 -2 -2 -2 -2 -2 -2 -2 -2 -2 -2 -2 -2 -2 -2 -3 -3 -3 -3 -3 -3 -3 -3 -2 -2 -2 -2 -1 -1 -1 -1 -1 -2 -2 -2 -1 -1 -1 -1 -1 -1 -1 -1 -1 -2 -2 -2 -1 -1 -1 -1 -1 -2 -2 -2 -2 -2 -2 -2 -1 0 -0 -1 -2 -3 -3 -3 -3 -2 -1 -1 -1 -1 -1 -1 -1 -2 -2 -3 -3 -3 -3 -3 -2 -2 -1 -1 -1
-1 -1 -0 -0 0 0 1 0 0 -0 -1 -1 -1 -0 -0 -0 -0 -1 -1 -1 -2 -2 -2 -2 -2 -1 -1 -2 -2 -2 -3 -3 -2 -2 -2 -3 -3 -3 -3 -3 -3 -2 -2 -2 -2 -2 -2 -2 -2 -2 -2 -2 -2 -2 -1 -1 -1 -1 -1 -1 -2 -2 -2 -2 -1 -1 -1 -1 -2 -2 -2 -2 -2 -2 -2 -1 -0 -0 -1 -1 -2 -2 -2 -2 -2 -1 -1 -0 -0 -0 -1 -1 -1 -2 -2 -2 -2 -2 -2 -2 -2 -1 -1
-3 -3 -3 -2 -1 -0 0 0 1 1 1 1 1 1 1 1 1 1 1 -0 -0 -1 -1 -1 -1 -1 -0 -1 -1 -2 -2 -2 -2 -2 -2 -2 -2 -2 -2 -2 -3 -3 -3 -2 -2 -2 -2 -2 -2 -2 -2 -2 -2 -2 -2 -2 -2 -2 -1 -2 -2 -2 -2 -2 -2 -2 -1 -1 -1 -1 -2 -2 -2 -2 -2 -2 -1 -1 -0 -0 -0 -1 -1 -1 -1 -1 -1 -1 -0 -0 -0 -0 -0 -1 -1 -1 -1 -1 -1 -1 -1 -1 -1
-3 -3 -4 -3 -3 -2 -2 -2 -1 -1 -1 -0 0 0 -0 -0 -0 -0 0 0 0 -0 -0 -1 -1 -0 0 0 -0 -1 -1 -1 -1 -1 -1 -1 -1 -2 -2 -2 -2 -2 -2 -2 -2 -2 -2 -2 -2 -2 -2 -2 -2 -2 -2 -2 -2 -2 -2 -2 -2 -2 -3 -3 -3 -2 -2 -1 -1 -1 -1 -1 -2 -2 -2 -2 -2 -1 -1 -0 -0 0 -0 -0 -1 -1 -1 -1 -0 -0 -0 0 0 0 0 0 0 -0 -0 -1 -1 -1 -1
-2 -2 -3 -3 -2 -2 -3 -3 -3 -3 -3 -2 -2 -2 -2 -2 -2 -2 -2 -1 -1 -1 -1 -1 -1 -1 -0 0 0 -0 -1 -1 -1 -1 -0 -1 -1 -1 -1 -1 -1 -1 -2 -2 -2 -2 -2 -2 -2 -1 -1 -1 -1 -1 -2 -2 -2 -2 -2 -1 -2 -2 -3 -3 -3 -3 -2 -2 -1 -1 -0 -1 -1 -2 -2 -2 -2 -2 -2 -1 -1 -0 -0 -0 -0 -0 -0 -0 -0 -0 -0 0 0 1 1 1 0 0 0 -0 -0 -0 -1
-0 -0 -0 -1 -1 -1 -2 -2 -3 -3 -3 -3 -3 -2 -2 -2 -2 -2 -2 -2 -2 -1 -1 -1 -1 -1 -1 -0 0 0 -0 -1 -1 -1 -1 -1 -1 -1 -1 -1 -1 -1 -1 -1 -1 -2 -2 -2 -2 -2 -1 -1 -1 -1 -1 -1 -1 -1 -1 -1 -1 -1 -2 -2 -3 -3 -3 -2 -2 -1 -1 -0 -1 -1 -2 -2 -2 -2 -2 -2 -2 -1 -1 -0 -0 -0 -0 -0 -0 -0 -0 -0 -0 -0 0 0 0 0 0 0 0 0 -0
1 2 2 2 1 1 1 -0 -1 -1 -1 -1 -2 -1 -1 -0 0 0 0 -0 -1 -1 -1 -1 -1 -1 -0 0 0 0 0 -0 -1 -1 -1 -1 -1 -1 -1 -2 -2 -2 -2 -2 -2 -2 -2 -2 -2 -3 -2 -2 -1 -1 -1 -1 -1 -1 -1 -1 -1 -0 -1 -1 -2 -2 -2 -3 -3 -2 -2 -1 -0 -0 -1 -1 -2 -2 -2 -2 -2 -2 -2 -1 -1 -1 -1 -1 -1 -1 -1 -0 -0 -1 -1 -1 -1 -0 -0 -0 0 0 0
-0 1 2 2 2 1 1 1 -0 -0 0 0 0 -0 1 1 1 2 2 1 1 1 1 -0 -0 -1 -0 -0 -0 0 -0 -0 -1 -1 -1 -0 -0 -1 -1 -1 -1 -1 -2 -1 -1 -1 -2 -2 -3 -3 -4 -3 -2 -2 -1 -1 -1 -1 -1 -1 -1 -0 -0 -0 -1 -1 -1 -2 -2 -3 -3 -2 -1 -1 -0 -1 -1 -2 -2 -2 -2 -3 -3 -2 -2 -2 -1 -1 -1 -1 -1 -1 -1 -1 -1 -1 -1 -1 -1 -1 -0 -0 0
1 1 1 0 0 0 -0 -0 -1 -0 -0 1 1 1 1 1 1 1 1 2 2 2 1 0 -0 -0 -0 -1 -1 -1 -1 -1 -1 -1 -1 -1 -0 -0 -0 -1 -1 -1 -1 -1 -1 -1 -1 -2 -2 -3 -4 -4 -4 -3 -2 -2 -2 -2 -2 -1 -1 -1 -0 -0 -0 -0 -0 -1 -2 -2 -3 -3 -2 -1 -1 -1 -1 -1 -2 -2 -2 -2 -3 -3 -3 -2 -2 -2 -2 -2 -2 -1 -1 -1 -1 -1 -1 -1 -1 -1 -1 -0 -0
1 1 1 -0 -1 -1 -1 -1 -1 -1 -0 -0 -0 -0 -0 -0 0 0 1 1 1 1 1 0 0 -0 -0 -1 -1 -2 -1 -1 -1 -1 -1 -1 -0 -0 -0 -0 -0 -1 -1 -1 -1 -1 -1 -1 -2 -2 -3 -4 -4 -4 -3 -3 -3 -2 -2 -2 -2 -1 -1 -1 -0 -0 0 -0 -0 -1 -2 -2 -2 -2 -2 -1 -1 -1 -1 -2 -2 -2 -2 -2 -3 -3 -3 -2 -2 -2 -2 -2 -2 -1 -1 -1 -1 -1 -1 -1 -1 -1 -1
-0 -0 -0 -0 -0 -1 -1 -0 -1 -1 -1 -1 -1 -2 -2 -2 -2 -1 -1 -1 -1 -0 -0 -0 -0 -0 -0 -1 -1 -1 -2 -1 -1 -1 -1 -1 -1 -1 -0 -0 -0 -0 -0 -1 -1 -1 -1 -1 -1 -2 -2 -3 -3 -3 -3 -3 -3 -3 -3 -2 -2 -2 -2 -1 -1 -0 -0 0 0 0 -1 -2 -2 -2 -2 -2 -2 -1 -1 -1 -1 -1 -2 -2 -2 -2 -2 -2 -2 -2 -2 -3 -2 -2 -2 -1 -1 -1 -1 -1 -1 -1 -1
-0 -0 -1 -0 -0 -1 -1 -1 -1 -1 -1 -1 -2 -2 -2 -2 -2 -2 -2 -2 -2 -2 -1 -1 -1 -1 -0 -0 -0 -1 -1 -1 -0 -0 -0 -1 -1 -1 -1 -0 -0 -0 -0 -1 -1 -1 -2 -1 -1 -1 -2 -2 -2 -3 -3 -3 -3 -3 -2 -2 -2 -2 -2 -2 -2 -1 -1 -0 0 1 0 -0 -1 -2 -2 -2 -2 -1 -1 -1 -1 -1 -1 -1 -2 -2 -2 -2 -2 -2 -2 -3 -3 -3 -2 -2 -2 -1 -1 -1 -1 -1 -1
1 1 -0 -0 -0 -0 -0 -1 -1 -1 -1 -1 -1 -1 -1 -1 -1 -1 -2 -2 -2 -2 -2 -1 -1 -1 -1 -0 -0 -0 -0 -0 0 0 0 0 -0 -0 0 0 0 0 -0 -0 -1 -1 -1 -2 -1 -1 -1 -2 -2 -2 -2 -2 -2 -2 -2 -2 -2 -2 -2 -2 -2 -2 -2 -1 -0 0 1 1 0 -1 -1 -1 -1 -1 -1 -1 -1 -1 -1 -1 -1 -1 -1 -2 -2 -2 -2 -3 -3 -3 -3 -3 -2 -2 -2 -2 -2 -2 -2
1 1 1 1 1 1 1 1 0 0 -0 -0 -0 -0 -0 -0 -0 -0 -1 -1 -1 -1 -1 -1 -2 -2 -1 -1 -1 -1 -0 -0 -0 0 1 1 0 1 1 1 1 1 1 0 -0 -1 -1 -1 -1 -1 -1 -2 -2 -2 -3 -2 -2 -2 -2 -2 -2 -1 -1 -2 -2 -2 -1 -1 -1 -0 1 1 1 1 0 -0 -1 -1 -1 -1 -1 -1 -1 -1 -1 -1 -1 -1 -1 -1 -1 -2 -3 -3 -3 -3 -3 -3 -2 -2 -2 -2 -2
1 1 1 1 1 1 1 1 1 1 1 1 1 1 0 0 0 0 0 -0 -0 -0 -0 -1 -1 -1 -1 -1 -1 -1 -1 -1 -0 -0 0 0 0 0 1 1 1 1 1 1 0 -0 -1 -1 -1 -1 -1 -1 -2 -2 -2 -3 -3 -2 -2 -2 -2 -2 -2 -2 -2 -2 -2 -2 -1 -1 0 1 2 2 2 1 0 -0 -0 -0 -1 -1 -1 -1 -1 -1 -1 -1 -1 -1 -1 -1 -2 -2 -3 -3 -3 -3 -3 -3 -2 -2 -2
1 1 1 1 1 1 1 1 1 1 1 1 1 1 1 1 1 1 1 1 0 0 0 -0 -0 -0 -0 -1 -1 -1 -1 -0 -0 -0 -0 0 0 0 -0 0 0 1 1 1 0 -0 -1 -1 -1 -1 -1 -1 -1 -1 -2 -2 -2 -2 -2 -2 -2 -2 -2 -2 -2 -2 -2 -2 -2 -1 -0 0 1 2 2 2 1 1 0 0 -0 -0 -1 -1 -1 -1 -1 -1 -1 -1 -0 -1 -1 -2 -2 -3 -3 -3 -3 -3 -3 -3 -2
1 1 1 1 1 1 1 1 1 1 1 1 1 1 1 1 1 1 1 1 1 1 1 1 1 1 0 1 1 0 0 1 1 1 1 1 1 1 0 0 -0 0 0 -0 -0 -0 -1 -1 -1 -1 -1 -1 -1 -1 -1 -1 -2 -2 -2 -2 -2 -2 -1 -1 -1 -1 -2 -2 -2 -1 -1 -1 -0 1 1 1 1 1 1 1 -0 -0 -0 -0 -0 -1 -1 -1 -1 -1 -0 -0 -0 -1 -2 -2 -2 -2 -3 -3 -3 -3 -2
1 1 1 1 1 1 1 1 1 1 0 0 0 0 1 1 1 1 1 1 1 1 1 1 1 1 1 1 1 2 2 2 2 2 1 1 1 1 1 0 -0 -0 -0 -0 -0 -1 -1 -1 -1 -1 -1 -1 -1 -1 -1 -1 -1 -1 -1 -1 -1 -1 -1 -1 -1 -1 -1 -2 -2 -2 -2 -2 -2 -1 -0 -0 0 1 1 1 0 -0 -1 -0 -0 -0 -0 -1 -1 -1 -0 -0 -0 -0 -1 -1 -1 -2 -2 -2 -2 -3 -2
1 1 1 1 1 1 1 1 0 0 0 0 -0 -0 -0 0 0 0 0 0 0 0 0 1 1 1 1 1 1 2 2 2 2 2 1 1 1 1 0 -0 -0 -1 -0 -1 -1 -1 -1 -1 -1 -1 -1 -1 -1 -1 -1 -1 -0 -0 0 0 0 0 -0 -0 -0 -1 -1 -1 -2 -2 -2 -2 -3 -2 -1 -1 -0 -0 1 1 0 -0 -1 -1 -1 -0 -0 -0 -1 -1 -1 -1 -0 -0 -0 -1 -1 -1 -1 -1 -2 -2 -2
1 1 1 1 0 0 0 0 0 0 -0 0 -0 -0 -1 0 0 0 0 0 0 0 0 0 0 1 1 1 1 1 1 2 2 1 1 1 1 0 0 -0 -1 -1 -1 -1 -1 -1 -1 -0 -0 -0 -0 -0 -0 -0 -0 -0 -0 0 0 1 1 0 0 -0 -0 -1 -1 -2 -2 -2 -2 -3 -3 -3 -2 -1 -1 -1 -0 0 0 0 -0 -1 -1 -1 -1 -0 -1 -1 -1 -1 -1 -1 -1 -1 -1 -1 -1 -1 -1 -1 -2
1 1 1 0 0 -0 -0 -0 -0 -0 -0 -0 -0 -1 -1 -0 -0 0 0 0 0 0 0 0 0 0 0 1 1 1 1 1 1 1 1 0 0 0 -0 -0 -0 -0 -1 -1 -1 -1 -1 -0 -0 0 0 0 0 0 0 0 0 0 0 0 0 -0 -0 -1 -1 -1 -1 -2 -2 -2 -2 -3 -3 -2 -1 -1 -1 -1 -1 -1 -0 -0 -0 -1 -1 -2 -2 -1 -1 -1 -1 -1 -1 -1 -1 -1 -1 -1 -0 -0 -0 -1 -1
0 0 0 -0 -0 -0 -0 -0 -1 -1 -1 -1 -1 -1 -1 -0 -0 -0 -0 0 0 0 0 0 0 0 0 1 1 0 1 1 1 1 0 0 0 0 -0 0 0 -0 -0 -0 -0 -1 -1 -0 0 0 0 1 1 0 0 0 0 -0 -0 -1 -1 -1 -1 -1 -1 -1 -1 -1 -2 -2 -2 -2 -3 -3 -3 -2 -2 -2 -2 -2 -1 -1 -0 -0 -1 -2 -2 -2 -2 -1 -1 -1 -1 -1 -1 -1 -1 -1 -1 -1 -0 -0 -0
0 0 -0 -0 -0 -0 -1 -1 -1 -1 -1 -1 -1 -1 -1 -0 -0 -0 -0 -0 -0 -0 -0 0 0 0 1 1 1 0 1 1 1 1 0 0 0 -0 -0 0 0 -0 -0 -0 -0 -1 -1 -0 0 0 0 1 1 0 0 0 -0 -0 -1 -1 -1 -2 -2 -2 -2 -1 -1 -1 -1 -1 -2 -2 -2 -3 -3 -1 -1 -1 -2 -2 -2 -1 -0 1 1 0 -1 -1 -2 -1 -1 -1 -1 -1 -0 -1 -1 -1 -1 -1 -1 -0 0
-0 -0 -0 -0 -0 -0 -0 -1 -1 -1 -1 -1 -0 -0 -1 -1 -1 -0 -0 -1 -0 -0 -0 -0 0 0 1 1 1 1 1 1 1 1 0 -0 -0 -0 -0 -0 -0 -0 0 0 -0 -0 -0 0 0 -0 0 0 0 0 0 -0 -0 -1 -1 -2 -2 -2 -2 -2 -2 -2 -1 -1 -1 -1 -1 -1 -1 -2 -2 -0 -0 -1 -1 -1 -1 -0 -0 0 1 1 1 0 -0 -1 -1 -1 -0 -0 0 0 -0 -1 -2 -2 -1 -1 -0
0 0 0 0 -0 -0 -0 -1 -1 -1 -1 -1 -0 -0 -0 -0 -1 -0 -0 -0 -0 -0 -0 0 0 0 0 1 1 1 0 1 1 1 1 -0 -1 -1 -0 -0 -1 -0 0 -0 -0 -0 -0 0 0 -0 0 0 -0 -0 -0 -0 -1 -1 -2 -2 -2 -2 -2 -2 -2 -2 -1 -1 -1 -0 -0 -0 -0 -1 -1 -0 -1 -1 -1 -1 -1 -1 -0 -0 -0 -0 0 0 0 -0 -0 -0 -0 0 1 1 1 0 -1 -1 -2 -1 -1
0 0 0 0 0 -0 -1 -1 -1 -1 -1 -0 -0 -0 -0 -0 -0 -0 -0 -0 -0 -0 -1 0 0 0 0 1 1 0 -0 1 1 1 1 0 -0 -1 -0 -1 -1 -0 0 -0 -0 -0 0 -0 -0 0 0 0 -0 -0 -1 -1 -1 -1 -2 -2 -2 -2 -2 -1 -1 -1 -1 -1 -1 -1 -0 -0 -0 -0 -1 -0 -0 -1 -1 -1 -1 -1 -1 -1 -1 -1 -1 -1 -1 -1 -1 -0 -0 0 0 1 1 1 1 0 -1 -1 -1
0 0 0 0 0 -0 -1 -1 -1 -1 -1 -1 -1 -0 -0 -0 -0 -0 -0 -0 -0 -0 -1 -0 0 -0 0 0 0 0 -0 1 1 1 0 0 0 -0 -0 -1 -1 -0 0 -0 -0 0 0 -0 -0 0 0 -0 -0 -0 -1 -1 -1 -1 -2 -2 -1 -1 -1 -1 -1 -1 -1 -1 -1 -1 -1 -0 -0 -0 -1 -1 -1 -1 -1 -2 -2 -2 -2 -2 -2 -2 -2 -2 -2 -1 -1 -1 -1 -0 -0 -0 0 1 2 2 1 -0 -1
0 0 0 0 -0 -1 -1 -2 -2 -1 -1 -1 -1 -1 -0 -0 -0 -0 -0 -1 -1 -1 -0 0 -0 0 1 1 1 1 1 1 1 1 0 0 0 0 -0 -0 -0 -0 -0 -0 -0 0 0 -0 -0 -0 -0 -0 -0 -0 -1 -1 -1 -1 -1 -1 -1 -1 -1 -1 -1 -1 -1 -1 -1 -1 -1 -1 -1 -1 -1 -1 -1 -2 -2 -2 -2 -2 -2 -3 -3 -2 -3 -3 -2 -2 -2 -1 -1 -1 -1 -1 -1 0 1 3 3 2 0
-0 -0 -0 -0 -1 -1 -2 -2 -2 -2 -1 -1 -1 -1 -0 -0 -0 -1 -0 -0 -1 -0 0 0 0 0 1 1 1 1 1 1 1 1 1 1 0 -0 -0 -0 -0 0 -0 -0 -0 -0 -0 -1 -1 -1 -1 -0 -0 -0 -0 -1 -1 -1 -1 -1 -1 -0 -0 -0 -0 -0 -0 -1 -1 -1 -1 -1 -1 -1 -1 -1 -1 -2 -2 -2 -2 -2 -2 -3 -3 -3 -3 -3 -3 -2 -2 -2 -1 -1 -1 -2 -2 -2 -1 0 2 4 4
-0 -0 -1 -1 -1 -2 -2 -2 -2 -2 -1 -1 -1 -1 -0 0 -0 -1 -0 -0 -0 -0 0 1 1 1 0 1 1 1 0 1 1 1 -0 0 0 -0 -1 -0 -0 -0 -0 -0 -0 -0 -1 -1 -1 -1 -1 -0 -0 0 0 -0 -1 -1 -1 -0 0 0 1 1 0 0 -0 -1 -1 -1 -1 -1 -1 -1 -1 -1 -1 -1 -1 -1 -1 -1 -1 -2 -2 -2 -2 -3 -3 -3 -2 -2 -2 -2 -2 -2 -3 -3 -3 -3 -1 1 3
-0 -0 -0 -1 -2 -2 -2 -2 -2 -2 -1 -1 -1 -1 -0 -0 -0 -1 -1 -0 -0 -1 -0 0 1 1 0 1 1 1 -1 -0 -0 -0 -1 -0 -0 -0 -1 -0 -0 -0 -1 -0 -0 -1 -1 -1 -1 -0 -0 -0 0 1 0 0 -0 -0 -0 0 0 1 1 1 0 -0 -1 -1 -1 -1 -2 -2 -2 -2 -1 -1 -1 -1 -1 -1 -1 -1 -1 -1 -1 -0 -0 -1 -1 -1 -1 -2 -2 -2 -1 -2 -3 -3 -4 -4 -4 -3 -1
-0 -0 -0 -1 -1 -2 -2 -2 -2 -1 -1 -1 -1 -1 -0 -0 -1 -1 -1 -0 -0 -0 -1 -0 0 1 1 1 1 0 -0 -1 -1 -1 -1 -1 -1 -0 -0 -0 -1 -1 -1 -1 -1 -1 -1 -1 -0 -0 -0 0 0 1 0 0 0 0 0 0 0 1 1 0 0 -0 -1 -1 -1 -1 -1 -2 -2 -2 -2 -2 -1 -1 -1 -1 -0 -0 -0 -0 -0 -0 0 0 0 0 -0 -0 -1 -0 -0 -0 -1 -1 -2 -4 -5 -5 -5
-0 0 0 -0 -1 -1 -2 -2 -2 -1 -1 -1 -1 -0 -0 -1 -1 -1 -1 -0 -0 -0 -0 -0 0 0 1 1 1 0 0 -1 -1 -2 -1 -1 -1 -1 -0 -0 -0 -1 -1 -1 -1 -1 -1 -1 -0 -0 0 0 1 0 0 0 0 0 0 0 0 0 0 -0 -0 -1 -1 -1 -1 -1 -1 -1 -1 -2 -2 -2 -2 -1 -1 -1 -1 -1 -0 -0 -0 -0 -0 0 1 1 1 1 0 0 0 1 1 0 -0 -2 -3 -4 -4
-0 0 0 0 -0 -1 -1 -2 -2 -1 -1 -1 -1 -1 -0 -1 -1 -1 -1 -1 0 0 -0 -0 -0 -0 -0 -0 0 1 1 1 -0 -1 -1 -1 -1 -1 -1 -1 -1 -1 -1 -1 -1 -1 -0 -0 0 1 1 1 1 1 1 1 1 0 0 0 0 0 0 -0 -1 -1 -1 -1 -0 -0 -0 -1 -1 -1 -1 -2 -2 -2 -1 -1 -1 -1 -1 -1 -1 -1 -1 -0 -0 0 1 1 1 1 0 1 1 1 0 -0 -1 -2 -2
0 0 0 -0 -0 -0 -1 -1 -1 -1 -2 -1 -1 -1 -1 -1 -2 -2 -2 -1 -0 0 0 -1 -1 -1 -1 -0 0 1 1 1 1 1 0 -0 -0 -0 -0 -1 -1 -1 -1 -1 -0 0 1 1 2 2 2 2 2 2 1 1 1 0 0 0 0 0 0 -0 -1 -1 -1 -1 -0 -0 0 -0 -0 -1 -1 -1 -1 -1 -1 -2 -2 -2 -1 -1 -1 -1 -1 -1 -1 -0 0 0 1 1 0 1 1 0 0 -0 -0 -1 -2
1 0 -0 -0 -1 -1 -1 -1 -1 -1 -2 -2 -1 -1 -1 -2 -2 -3 -3 -3 -1 -0 0 -0 -1 -1 0 0 1 1 2 2 2 1 1 1 1 1 1 -0 -1 -1 -1 -1 -0 1 2 3 3 3 3 3 2 2 2 1 1 0 1 0 0 0 1 -0 -1 -1 -1 -1 -0 -0 -0 0 -0 -0 -0 -1 -1 -1 -1 -2 -2 -2 -2 -2 -2 -2 -2 -2 -1 -1 -1 -0 0 0 0 1 1 1 1 0 0 -0 -1
1 1 0 -0 -1 -1 -1 -1 -1 -1 -1 -1 -1 -1 -1 -2 -3 -3 -4 -3 -2 -1 0 1 1 1 1 2 2 2 2 1 1 1 1 2 2 2 2 0 -0 -0 -0 0 0 1 2 3 3 3 3 3 2 2 1 1 1 1 1 0 0 1 0 -0 -0 -1 -1 -1 -0 -0 -1 -0 -0 -0 -1 -1 -1 -1 -1 -2 -2 -2 -2 -2 -2 -2 -2 -2 -2 -2 -1 -1 -0 0 0 0 0 1 1 1 0 -0 -1
0 0 0 -0 -0 -0 -1 -1 -1 -1 -1 -1 -1 -1 -2 -2 -3 -3 -3 -2 -1 -0 1 2 2 2 2 2 2 2 2 1 0 1 1 2 2 3 2 1 0 0 1 1 1 1 1 2 3 3 3 2 1 1 0 0 1 1 1 1 1 0 0 0 -0 -0 -0 -0 -1 -1 -1 -1 -1 -1 -1 -1 -1 -1 -2 -2 -2 -2 -2 -2 -2 -2 -2 -2 -2 -2 -2 -1 -1 -0 0 0 0 0 0 0 0 -0 -1
-0 -0 -0 -0 -0 -0 -0 -1 -1 -1 -1 -1 -1 -1 -2 -2 -2 -2 -2 -1 -0 0 1 1 1 2 1 2 2 2 1 0 -0 -0 1 1 1 1 1 1 1 1 1 2 1 1 1 2 3 3 2 1 0 -0 -0 0 0 1 0 1 1 0 -0 0 0 0 0 -0 -1 -1 -1 -1 -1 -1 -1 -1 -1 -2 -2 -2 -2 -2 -2 -3 -3 -3 -3 -2 -2 -2 -2 -2 -1 -1 -0 0 0 0 -0 -0 -0 -1 -1
-1 -1 -1 -0 -0 0 0 -0 -1 -1 -1 -1 -1 -1 -1 -1 -1 -1 -1 -1 -0 0 0 0 1 1 1 1 2 3 2 1 -0 -0 -0 0 0 -0 -1 0 1 2 2 1 1 1 2 3 3 2 2 1 -0 -0 -0 -0 0 0 0 1 1 0 -0 0 0 0 0 -1 -1 -1 -1 -1 -1 -1 -1 -1 -2 -2 -2 -2 -2 -2 -2 -2 -2 -2 -2 -2 -2 -2 -1 -2 -1 -1 -0 0 1 1 0 -0 -1 -1 -1
-1 -1 -1 -1 -0 0 0 0 -0 -1 -1 -1 -1 -1 -1 -1 -1 -1 -1 -1 -1 -1 -0 -1 -1 0 1 1 1 2 3 1 1 0 -0 -1 -0 -0 -1 -1 0 2 2 2 1 1 3 4 3 2 1 1 0 -0 -0 0 0 0 0 1 0 0 0 -0 -0 -0 -0 -1 -1 -2 -1 -2 -1 -1 -1 -1 -2 -2 -1 -1 -1 -1 -1 -1 -1 -2 -2 -1 -1 -1 -1 -1 -1 -1 -1 -0 0 1 1 0 -0 -1 -1
-2 -1 -1 -1 -0 0 0 0 0 -0 -1 -1 -1 -1 -0 -0 -1 -1 -1 -1 -2 -2 -1 -1 -2 -2 0 1 1 1 2 1 1 0 -0 -1 -1 -0 0 -1 -1 -0 1 3 2 2 3 4 3 1 1 1 0 -0 -0 1 1 1 0 1 1 0 0 0 -0 -1 -1 -1 -2 -2 -2 -2 -2 -1 -1 -1 -1 -1 -1 -1 -1 -1 -1 -1 -1 -1 -1 -1 -1 -1 -0 -0 -1 -1 -1 -0 0 1 1 1 0 -0 -0
-1 -1 -1 -1 -0 -0 0 0 0 -0 -0 -1 -1 -1 -1 -0 -0 -1 -1 -1 -2 -2 -2 -2 -2 -3 -3 -0 1 1 1 1 1 1 0 -0 -1 -1 -0 0 -1 -2 -1 0 1 2 4 4 3 1 -0 1 1 1 0 2 2 1 1 1 1 1 1 0 0 -0 -0 -1 -1 -1 -1 -1 -1 -1 -1 -1 -1 -1 -1 -1 -1 -1 -1 -1 -1 -1 -1 -1 -1 -1 -0 -0 -0 -0 -0 -0 -0 0 1 1 2 1 1
-1 -0 -0 -0 -0 -0 0 0 -0 -0 -1 -1 -1 -1 -1 0 0 -0 -1 -1 -2 -2 -2 -2 -2 -2 -3 -2 -1 0 0 1 1 1 1 0 -1 -2 -3 -1 -1 -1 -1 -1 -1 -1 2 4 4 3 1 2 3 3 1 3 3 2 1 1 1 1 1 1 1 1 1 0 0 0 0 -0 -0 -0 -0 -0 -0 -0 -0 -1 -1 -1 -1 -1 -1 -1 -1 -1 -1 -1 -0 -0 -0 -0 -1 -1 -1 -0 0 1 2 3 2
-0 -0 -0 -0 -0 -0 -0 -1 -1 -1 -1 -1 -1 -1 -0 0 0 1 0 -0 -1 -1 -1 -2 -2 -1 -1 -2 -2 -1 -1 0 1 2 1 0 0 -1 -2 -3 -3 -2 -2 -1 -0 -0 -0 2 2 2 1 3 5 4 2 2 3 3 2 1 1 1 1 1 1 1 1 1 1 1 0 0 0 -0 -0 -0 -0 -0 -1 -1 -1 -1 -1 -1 -1 -1 -2 -2 -2 -1 -1 -0 -0 -1 -1 -1 -1 -1 -1 0 2 3 4
-0 -0 0 0 -0 -0 -1 -1 -2 -1 -1 -1 -1 -1 -0 -0 0 1 1 0 0 -0 -0 -1 -1 -0 0 -0 -1 -1 -2 -1 0 1 1 -0 -0 -0 0 -1 -3 -4 -5 -5 -3 -1 0 2 2 2 1 3 5 5 3 2 2 2 3 3 2 1 1 1 1 1 1 1 0 0 -0 -0 -0 -0 -1 -1 -1 -1 -1 -1 -1 -1 -1 -1 -1 -1 -2 -2 -2 -2 -1 -1 -0 -0 -1 -1 -2 -2 -2 -1 1 2 4
0 0 0 1 1 0 -1 -2 -2 -2 -2 -1 -1 -1 -1 -0 -0 0 1 0 0 0 0 -0 0 1 2 1 -0 -1 -1 -1 -1 -0 -0 -1 -1 -0 1 1 0 -1 -2 -4 -4 -4 -4 1 2 1 -0 2 4 4 4 3 2 2 2 3 3 3 2 1 1 1 0 0 0 -0 -1 -1 -1 -1 -1 -1 -1 -1 -1 -1 -1 -1 -1 -1 -1 -1 -1 -2 -2 -2 -2 -1 -1 -0 -1 -1 -1 -2 -2 -1 0 1 2
1 1 1 1 1 1 -0 -1 -2 -2 -2 -2 -1 -1 -1 -1 -0 0 1 1 0 0 0 -0 1 1 2 1 0 0 -1 -1 -1 -1 -1 -1 -1 -1 1 -0 0 0 1 -0 -1 -2 -4 -3 -2 -1 -1 -0 1 2 4 5 4 3 2 2 2 3 3 2 1 0 0 -0 0 0 -0 -1 -1 -1 -1 -1 -2 -2 -2 -1 -1 -1 -1 -1 -1 -1 -1 -1 -1 -1 -1 -1 -1 -0 -1 -1 -1 -1 -1 -0 0 1 1
1 1 1 1 2 1 1 -0 -1 -2 -2 -1 -1 -1 -1 -1 -0 0 1 0 0 0 0 0 -0 -0 -0 -0 0 -0 -0 -1 -1 -1 -2 -1 -1 -1 0 -1 -1 -0 1 1 0 -0 -1 -2 -3 -3 -1 -2 -2 -0 3 4 5 4 2 1 1 2 1 1 1 0 -0 -0 0 1 0 -0 -1 -1 -1 -1 -2 -2 -2 -1 -1 -1 -1 -1 -1 -1 -1 -1 -0 -1 -1 -1 -1 -1 -1 -1 -1 -1 -0 -0 0 0 0
1 2 1 2 2 2 2 1 -0 -1 -1 -1 -1 -1 -1 -1 -0 0 0 -0 0 1 1 0 0 0 0 -0 -0 -0 -1 -1 -1 -1 -1 -1 -2 -2 -1 -1 -0 0 0 0 0 -0 -0 -1 -1 -1 -2 -3 -3 -2 0 3 5 5 3 2 1 1 0 -0 -0 -0 -0 -0 1 1 1 -0 -1 -1 -1 -1 -2 -2 -2 -1 -1 -1 -1 -1 -1 -1 -0 -0 -0 -0 -0 -1 -1 -1 -1 -1 -1 -1 -1 -0 -0 -0 -0
1 1 1 1 2 2 2 1 0 0 0 0 -0 -0 -0 -0 -0 -0 -0 -0 0 1 1 1 0 -0 -0 -0 -0 -0 -1 -0 -1 -1 -1 -1 -2 -3 -2 -1 0 1 -0 -0 -0 -0 -0 -0 -0 -0 -1 -2 -3 -3 -3 1 3 5 4 3 2 2 1 1 -0 -0 -0 0 1 1 1 -0 -1 -1 -1 -1 -1 -1 -1 -1 -1 -1 -1 -1 -1 -0 -0 -0 -0 -0 -1 -1 -1 -1 -2 -2 -1 -1 -1 -1 -1 -1 -0
Height
3217 3217 3216 3216 3216 3216 3216 3216 3216 3216 3217 3217 3217 3217 3217 3217 3217 3217 3218 3218 3218 3218 3218 3218 3218 3218 3218 3218 3218 3218 3218 3218 3217 3217 3217 3217 3217 3217 3216 3216 3216 3216 3216 3215 3215 3215 3215 3215 3214 3214 3214 3213 3213 3212 3212 3211 3211 3211 3210 3210 3209 3209 3208 3208 3207 3207 3206 3206 3206 3205 3205 3205 3205 3204 3204 3203 3203 3202 3202 3202 3201 3201 3200 3200 3200 3200 3200 3200 3199 3199 3199 3199 3198 3198 3198 3197 3197 3196 3196 3196 3195 3195 3195
3218 3218 3218 3218 3218 3217 3217 3217 3217 3217 3217 3218 3218 3218 3218 3218 3218 3218 3219 3219 3219 3219 3219 3219 3219 3219 3219 3219 3219 3218 3218 3218 3218 3218 3217 3217 3217 3217 3217 3217 3216 3216 3216 3216 3216 3215 3215 3215 3215 3214 3214 3214 3213 3213 3212 3212 3211 3211 3210 3210 3210 3209 3209 3208 3208 3207 3207 3206 3206 3205 3205 3205 3205 3204 3204 3203 3203 3203 3202 3202 3201 3201 3200 3200 3200 3200 3199 3199 3199 3199 3199 3198 3198 3198 3198 3197 3197 3197 3196 3196 3195 3195 3195
3219 3219 3219 3219 3219 3218 3218 3218 3218 3218 3218 3219 3219 3219 3219 3219 3219 3219 3219 3219 3219 3219 3219 3219 3219 3219 3219 3219 3219 3219 3218 3218 3218 3218 3218 3218 3217 3217 3217 3217 3217 3217 3216 3216 3216 3216 3215 3215 3215 3215 3214 3214 3214 3213 3213 3212 3212 3211 3211 3210 3210 3210 3209 3208 3208 3207 3207 3206 3206 3205 3205 3205 3205 3204 3204 3204 3203 3203 3203 3202 3202 3201 3201 3200 3200 3200 3199 3199 3199 3199 3198 3198 3198 3198 3197 3197 3197 3196 3196 3196 3195 3195 3195
3220 3220 3220 3220 3220 3220 3219 3219 3219 3219 3219 3219 3220 3220 3220 3220 3220 3220 3220 3220 3220 3220 3220 3220 3220 3220 3220 3219 3219 3219 3219 3219 3218 3218 3218 3218 3218 3218 3218 3217 3217 3217 3217 3217 3216 3216 3216 3215 3215 3215 3215 3214 3214 3213 3213 3213 3212 3212 3211 3211 3210 3210 3209 3209 3208 3208 3207 3207 3206 3206 3205 3205 3205 3204 3204 3204 3203 3203 3203 3202 3202 3202 3201 3201 3200 3200 3200 3199 3199 3198 3198 3198 3198 3197 3197 3197 3197 3196 3196 3196 3195 3195 3195
3220 3220 3220 3220 3220 3220 3220 3220 3220 3220 3220 3220 3220 3220 3220 3220 3221 3221 3221 3221 3220 3220 3220 3220 3220 3220 3220 3220 3220 3220 3219 3219 3219 3219 3219 3218 3218 3218 3218 3218 3218 3217 3217 3217 3217 3216 3216 3216 3215 3215 3215 3215 3214 3214 3213 3213 3212 3212 3211 3211 3210 3210 3210 3209 3209 3208 3208 3207 3207 3206 3205 3205 3205 3205 3204 3204 3203 3203 3203 3202 3202 3202 3201 3201 3200 3200 3200 3199 3199 3199 3198 3198 3197 3197 3197 3196 3196 3196 3196 3195 3195 3195 3195
3221 3221 3221 3221 3221 3221 3221 3221 3221 3221 3221 3221 3221 3221 3221 3221 3221 3221 3221 3221 3221 3221 3221 3221 3221 3221 3220 3220 3220 3220 3220 3220 3220 3219 3219 3219 3219 3219 3218 3218 3218 3218 3218 3217 3217 3217 3216 3216 3216 3216 3215 3215 3215 3214 3214 3213 3213 3212 3212 3211 3211 3210 3210 3210 3209 3209 3208 3208 3207 3207 3206 3205 3205 3205 3205 3204 3204 3203 3203 3202 3202 3202 3201 3201 3200 3200 3200 3200 3199 3199 3198 3198 3198 3197 3197 3196 3196 3196 3195 3195 3195 3195 3194
3222 3222 3222 3222 3222 3222 3222 3222 3222 3222 3222 3222 3222 3222 3222 3222 3222 3222 3222 3222 3222 3222 3222 3222 3221 3221 3221 3221 3221 3220 3220 3220 3220 3220 3220 3219 3219 3219 3219 3219 3218 3218 3218 3218 3217 3217 3217 3216 3216 3216 3215 3215 3215 3214 3214 3213 3213 3213 3212 3212 3211 3211 3210 3210 3210 3209 3209 3208 3208 3207 3207 3206 3206 3205 3205 3204 3204 3203 3203 3202 3202 3202 3201 3201 3201 3200 3200 3200 3199 3199 3198 3198 3198 3197 3197 3196 3196 3196 3195 3195 3195 3195 3194
3222 3222 3222 3222 3222 3222 3222 3222 3222 3222 3222 3222 3222 3222 3222 3223 3223 3223 3223 3223 3222 3222 3222 3222 3222 3222 3222 3221 3221 3221 3221 3221 3220 3220 3220 3220 3220 3220 3219 3219 3219 3219 3218 3218 3218 3217 3217 3217 3216 3216 3216 3215 3215 3215 3214 3214 3213 3213 3212 3212 3212 3211 3211 3210 3210 3209 3209 3208 3208 3207 3207 3207 3206 3205 3205 3204 3204 3203 3203 3202 3202 3202 3201 3201 3200 3200 3200 3199 3199 3199 3198 3198 3197 3197 3197 3196 3196 3195 3195 3195 3195 3194 3194
3222 3222 3223 3223 3223 3223 3223 3223 3223 3223 3223 3223 3223 3223 3223 3223 3223 3223 3223 3223 3223 3223 3223 3223 3222 3222 3222 3222 3222 3221 3221 3221 3221 3221 3220 3220 3220 3220 3220 3219 3219 3219 3218 3218 3218 3217 3217 3217 3217 3216 3216 3215 3215 3215 3214 3214 3213 3213 3213 3212 3212 3211 3211 3210 3210 3210 3209 3209 3208 3208 3207 3207 3206 3206 3205 3205 3204 3204 3203 3203 3202 3202 3201 3201 3200 3200 3200 3199 3199 3198 3198 3198 3197 3197 3196 3196 3196 3195 3195 3195 3194 3194 3194
3223 3223 3223 3223 3223 3223 3223 3223 3223 3223 3223 3223 3223 3223 3223 3223 3223 3223 3223 3223 3223 3223 3223 3223 3223 3222 3222 3222 3222 3222 3221 3221 3221 3221 3220 3220 3220 3220 3220 3220 3219 3219 3219 3218 3218 3218 3217 3217 3217 3216 3216 3215 3215 3215 3214 3214 3214 3213 3213 3212 3212 3211 3211 3211 3210 3210 3209 3209 3208 3208 3208 3207 3207 3206 3206 3205 3205 3204 3203 3203 3202 3202 3201 3201 3200 3200 3199 3199 3199 3198 3198 3197 3197 3196 3196 3196 3195 3195 3195 3195 3194 3194 3193
3223 3223 3223 3223 3223 3223 3223 3223 3223 3223 3223 3223 3223 3223 3223 3223 3223 3223 3223 3223 3223 3223 3223 3223 3223 3222 3222 3222 3222 3222 3221 3221 3221 3221 3221 3220 3220 3220 3220 3220 3219 3219 3219 3218 3218 3218 3217 3217 3217 3216 3216 3215 3215 3215 3215 3214 3214 3213 3213 3212 3212 3211 3211 3211 3210 3210 3210 3209 3209 3208 3208 3207 3207 3206 3206 3205 3205 3204 3204 3203 3202 3202 3201 3201 3200 3200 3199 3199 3198 3198 3198 3197 3197 3196 3196 3195 3195 3195 3195 3194 3194 3194 3193
3224 3224 3224 3224 3224 3224 3224 3224 3224 3224 3224 3224 3224 3224 3224 3224 3223 3223 3223 3223 3223 3223 3223 3223 3223 3223 3222 3222 3222 3222 3221 3221 3221 3221 3220 3220 3220 3220 3220 3219 3219 3219 3219 3218 3218 3218 3217 3217 3217 3216 3216 3215 3215 3215 3215 3214 3214 3213 3213 3212 3212 3211 3211 3211 3210 3210 3210 3209 3209 3208 3208 3207 3207 3206 3206 3205 3205 3205 3204 3203 3203 3202 3202 3201 3200 3200 3200 3199 3199 3198 3198 3197 3197 3196 3196 3195 3195 3195 3194 3194 3194 3193 3193
3224 3224 3224 3224 3224 3224 3224 3224 3224 3224 3224 3224 3224 3224 3224 3224 3224 3224 3224 3223 3223 3223 3223 3223 3223 3223 3222 3222 3222 3222 3221 3221 3221 3221 3220 3220 3220 3220 3220 3219 3219 3219 3218 3218 3218 3217 3217 3217 3216 3216 3216 3215 3215 3215 3215 3214 3214 3213 3213 3212 3212 3211 3211 3211 3210 3210 3210 3209 3209 3209 3208 3207 3207 3206 3206 3205 3205 3205 3204 3203 3203 3202 3202 3201 3201 3200 3200 3199 3199 3198 3198 3197 3197 3196 3196 3195 3195 3195 3194 3194 3194 3193 3193
3224 3224 3224 3224 3224 3224 3224 3224 3224 3224 3224 3224 3224 3224 3224 3224 3224 3224 3224 3224 3223 3223 3223 3223 3223 3223 3223 3222 3222 3222 3221 3221 3221 3221 3220 3220 3220 3220 3219 3219 3219 3218 3218 3218 3217 3217 3217 3217 3216 3216 3215 3215 3215 3215 3214 3214 3214 3213 3213 3212 3212 3211 3211 3211 3210 3210 3210 3209 3209 3209 3208 3208 3207 3206 3206 3205 3205 3205 3204 3204 3203 3202 3202 3201 3201 3200 3200 3199 3199 3198 3198 3197 3197 3196 3196 3195 3195 3195 3194 3194 3194 3193 3193
3223 3223 3223 3223 3224 3224 3224 3224 3224 3224 3224 3224 3224 3224 3224 3224 3224 3224 3224 3223 3223 3223 3223 3223 3223 3223 3223 3222 3222 3222 3221 3221 3221 3221 3220 3220 3220 3220 3219 3219 3218 3218 3218 3217 3217 3217 3217 3216 3216 3216 3215 3215 3215 3214 3214 3214 3214 3213 3213 3212 3212 3211 3211 3210 3210 3210 3210 3209 3209 3208 3208 3207 3207 3206 3206 3205 3205 3205 3204 3204 3203 3202 3202 3201 3201 3200 3200 3199 3199 3198 3198 3197 3197 3196 3196 3195 3195 3195 3194 3194 3193 3193 3193
3223 3223 3223 3223 3223 3223 3223 3223 3224 3224 3224 3224 3224 3224 3224 3223 3223 3223 3223 3223 3223 3223 3223 3223 3222 3222 3222 3222 3222 3222 3221 3221 3221 3221 3220 3220 3220 3219 3219 3219 3218 3218 3217 3217 3217 3216 3216 3216 3216 3215 3215 3215 3215 3214 3214 3214 3213 3213 3212 3212 3212 3211 3210 3210 3210 3210 3209 3209 3209 3208 3208 3207 3207 3206 3206 3205 3205 3204 3204 3203 3203 3202 3202 3201 3201 3200 3200 3199 3199 3198 3198 3197 3197 3196 3196 3195 3195 3195 3194 3194 3193 3193 3192
3223 3223 3223 3223 3223 3223 3223 3223 3223 3223 3223 3223 3223 3223 3223 3223 3223 3223 3223 3223 3222 3222 3222 3222 3222 3222 3222 3222 3222 3222 3221 3221 3221 3220 3220 3220 3219 3219 3219 3218 3218 3217 3217 3217 3216 3216 3216 3215 3215 3215 3215 3215 3214 3214 3214 3213 3213 3212 3212 3212 3211 3211 3210 3210 3210 3210 3209 3209 3208 3208 3207 3207 3207 3206 3205 3205 3205 3204 3204 3203 3203 3202 3202 3201 3201 3200 3200 3199 3199 3198 3198 3197 3197 3196 3195 3195 3195 3194 3194 3194 3193 3193 3192
3223 3223 3223 3223 3223 3223 3223 3223 3223 3223 3223 3223 3223 3223 3223 3223 3223 3223 3222 3222 3222 3222 3222 3222 3222 3221 3221 3221 3221 3221 3221 3221 3220 3220 3220 3220 3219 3219 3218 3218 3217 3217 3217 3216 3216 3215 3215 3215 3215 3215 3214 3214 3214 3214 3213 3213 3212 3212 3212 3211 3211 3211 3210 3210 3210 3209 3209 3208 3208 3208 3207 3207 3206 3206 3205 3205 3205 3204 3204 3203 3203 3202 3201 3201 3200 3200 3200 3199 3198 3198 3197 3197 3196 3196 3195 3195 3195 3194 3194 3193 3193 3192 3192
3223 3223 3223 3223 3223 3223 3223 3223 3223 3223 3223 3223 3222 3222 3222 3222 3222 3222 3222 3222 3222 3222 3221 3221 3221 3221 3221 3221 3221 3221 3220 3220 3220 3220 3219 3219 3219 3218 3218 3217 3217 3216 3216 3216 3215 3215 3215 3214 3214 3214 3214 3213 3213 3213 3213 3212 3212 3211 3211 3211 3210 3210 3210 3210 3209 3209 3208 3208 3208 3207 3207 3206 3206 3205 3205 3205 3204 3204 3203 3203 3202 3202 3201 3201 3200 3200 3199 3199 3198 3198 3197 3196 3196 3195 3195 3195 3194 3194 3193 3193 3192 3192 3191
3223 3223 3223 3223 3223 3223 3223 3222 3222 3222 3222 3222 3222 3222 3222 3222 3222 3222 3222 3221 3221 3221 3221 3221 3220 3220 3220 3220 3220 3220 3220 3220 3219 3219 3219 3219 3218 3218 3217 3217 3216 3216 3215 3215 3215 3214 3214 3214 3213 3213 3213 3212 3212 3212 3212 3212 3211 3211 3211 3210 3210 3210 3209 3209 3209 3208 3208 3208 3207 3207 3206 3206 3205 3205 3205 3204 3204 3203 3203 3202 3202 3201 3201 3200 3200 3200 3199 3198 3198 3197 3197 3196 3196 3195 3195 3194 3194 3193 3193 3192 3192 3191 3191
3222 3222 3223 3223 3222 3222 3222 3222 3222 3222 3222 3221 3221 3221 3221 3221 3221 3221 3221 3221 3221 3220 3220 3220 3220 3220 3220 3219 3219 3219 3219 3219 3218 3218 3218 3218 3217 3217 3217 3216 3216 3215 3215 3215 3214 3214 3213 3213 3213 3212 3212 3212 3211 3211 3211 3211 3210 3210 3210 3210 3209 3209 3209 3208 3208 3208 3207 3207 3207 3206 3205 3205 3205 3204 3204 3204 3203 3203 3202 3202 3201 3201 3200 3200 3199 3199 3198 3198 3197 3197 3196 3196 3195 3195 3194 3194 3193 3193 3192 3192 3191 3191 3190
3221 3222 3222 3222 3222 3222 3222 3222 3221 3221 3221 3221 3221 3220 3220 3220 3220 3220 3220 3220 3220 3220 3220 3219 3219 3219 3219 3218 3218 3218 3218 3218 3217 3217 3217 3217 3216 3216 3216 3215 3215 3215 3214 3214 3213 3213 3213 3212 3212 3211 3211 3211 3210 3210 3210 3210 3210 3210 3209 3209 3209 3208 3208 3208 3207 3207 3207 3206 3206 3205 3205 3205 3204 3204 3203 3203 3202 3202 3201 3201 3200 3200 3200 3199 3199 3198 3198 3197 3197 3196 3196 3195 3195 3194 3194 3193 3193 3192 3192 3191 3191 3190 3190
3221 3221 3221 3221 3221 3221 3221 3221 3221 3221 3220 3220 3220 3220 3220 3220 3219 3219 3219 3219 3219 3219 3218 3218 3218 3218 3218 3218 3217 3217 3217 3217 3216 3216 3216 3216 3215 3215 3215 3215 3214 3214 3213 3213 3212 3212 3212 3211 3211 3211 3210 3210 3210 3210 3209 3209 3209 3209 3208 3208 3208 3207 3207 3207 3206 3206 3206 3205 3205 3205 3205 3204 3203 3203 3202 3202 3202 3201 3201 3200 3200 3199 3199 3198 3198 3197 3197 3196 3196 3195 3195 3195 3194 3194 3193 3193 3192 3192 3191 3191 3190 3190 3189
3220 3220 3220 3220 3220 3220 3220 3220 3220 3220 3220 3220 3220 3219 3219 3219 3219 3218 3218 3218 3218 3218 3217 3217 3217 3217 3217 3216 3216 3216 3216 3216 3215 3215 3215 3215 3215 3214 3214 3214 3213 3213 3212 3212 3211 3211 3211 3210 3210 3210 3210 3209 3209 3209 3208 3208 3208 3208 3207 3207 3207 3206 3206 3206 3205 3205 3205 3205 3204 3204 3204 3203 3203 3202 3202 3201 3201 3200 3200 3199 3199 3198 3198 3197 3197 3196 3196 3196 3195 3195 3194 3194 3193 3193 3192 3192 3191 3191 3190 3190 3190 3189 3189
3219 3219 3219 3219 3219 3219 3219 3219 3219 3219 3219 3219 3219 3218 3218 3218 3218 3218 3217 3217 3217 3217 3216 3216 3216 3216 3216 3215 3215 3215 3215 3215 3215 3215 3214 3214 3214 3213 3213 3213 3212 3212 3211 3211 3210 3210 3210 3210 3209 3209 3209 3208 3208 3208 3207 3207 3207 3207 3206 3206 3206 3205 3205 3205 3205 3204 3204 3204 3203 3203 3203 3202 3202 3201 3201 3200 3200 3199 3199 3198 3198 3197 3197 3196 3196 3195 3195 3195 3194 3194 3193 3193 3192 3192 3191 3191 3190 3190 3190 3189 3189 3188 3188
3218 3218 3218 3218 3218 3218 3218 3218 3218 3218 3218 3218 3218 3217 3217 3217 3217 3217 3216 3216 3216 3216 3215 3215 3215 3215 3215 3214 3214 3214 3214 3214 3214 3213 3213 3213 3212 3212 3212 3211 3211 3211 3210 3210 3210 3209 3209 3208 3208 3208 3208 3207 3207 3207 3206 3206 3206 3206 3205 3205 3205 3205 3204 3204 3203 3203 3203 3202 3202 3202 3201 3201 3200 3200 3200 3199 3199 3198 3198 3197 3197 3196 3196 3195 3195 3195 3194 3194 3193 3193 3192 3192 3191 3191 3190 3190 3190 3189 3189 3188 3188 3187 3187
3217 3217 3217 3217 3217 3217 3217 3217 3217 3217 3217 3217 3217 3216 3216 3216 3216 3216 3215 3215 3215 3215 3215 3214 3214 3214 3214 3213 3213 3213 3213 3213 3212 3212 3212 3212 3211 3211 3210 3210 3210 3210 3209 3209 3208 3208 3208 3207 3207 3207 3206 3206 3206 3206 3205 3205 3205 3205 3205 3204 3204 3203 3203 3203 3202 3202 3201 3201 3200 3200 3200 3200 3199 3199 3198 3198 3197 3197 3197 3196 3196 3195 3195 3194 3194 3193 3193 3193 3192 3192 3191 3191 3190 3190 3189 3189 3189 3188 3188 3187 3187 3186 3186
3216 3216 3216 3216 3216 3216 3216 3216 3216 3216 3216 3216 3215 3215 3215 3215 3215 3215 3215 3214 3214 3214 3214 3213 3213 3213 3213 3212 3212 3212 3212 3211 3211 3211 3211 3210 3210 3210 3210 3209 3209 3208 3208 3208 3207 3207 3206 3206 3206 3205 3205 3205 3205 3205 3205 3204 3204 3204 3203 3203 3203 3202 3202 3201 3201 3200 3200 3200 3199 3199 3198 3198 3198 3197 3197 3196 3196 3196 3195 3195 3195 3194 3194 3193 3193 3192 3192 3191 3191 3190 3190 3190 3189 3189 3188 3188 3187 3187 3187 3186 3186 3185 3185
3215 3215 3215 3215 3215 3215 3215 3215 3215 3215 3215 3215 3215 3214 3214 3214 3214 3214 3213 3213 3213 3213 3213 3212 3212 3212 3211 3211 3211 3211 3210 3210 3210 3210 3209 3209 3209 3209 3208 3208 3207 3207 3207 3206 3206 3206 3205 3205 3205 3205 3204 3204 3204 3204 3203 3203 3203 3203 3202 3202 3201 3201 3200 3200 3200 3199 3199 3198 3198 3197 3197 3196 3196 3195 3195 3195 3195 3194 3194 3194 3193 3193 3192 3192 3191 3191 3190 3190 3190 3189 3189 3189 3188 3188 3187 3187 3186 3186 3185 3185 3185 3184 3184
3214 3214 3214 3214 3214 3214 3214 3214 3214 3214 3213 3213 3213 3213 3213 3213 3213 3212 3212 3212 3212 3211 3211 3211 3211 3210 3210 3210 3210 3210 3209 3209 3209 3208 3208 3208 3208 3207 3207 3206 3206 3206 3205 3205 3205 3205 3204 3204 3204 3203 3203 3203 3203 3202 3202 3202 3202 3201 3201 3200 3200 3200 3199 3199 3198 3198 3197 3196 3196 3196 3195 3195 3195 3194 3194 3193 3193 3193 3192 3192 3191 3191 3191 3190 3190 3190 3189 3189 3188 3188 3188 3187 3187 3186 3186 3185 3185 3185 3184 3184 3183 3183 3182
3213 3213 3213 3213 3213 3213 3212 3212 3212 3212 3212 3212 3212 3212 3212 3211 3211 3211 3211 3211 3210 3210 3210 3210 3210 3209 3209 3209 3208 3208 3208 3208 3207 3207 3207 3206 3206 3206 3205 3205 3205 3205 3204 3204 3204 3203 3203 3203 3203 3202 3202 3202 3201 3201 3201 3201 3200 3200 3200 3199 3199 3198 3198 3197 3197 3196 3196 3195 3195 3194 3194 3193 3193 3193 3192 3192 3191 3191 3191 3190 3190 3190 3189 3189 3189 3188 3188 3187 3187 3186 3186 3186 3185 3185 3185 3184 3184 3183 3183 3183 3182 3182 3181
3212 3212 3212 3212 3211 3211 3211 3211 3211 3211 3211 3210 3210 3210 3210 3210 3210 3210 3210 3210 3209 3209 3209 3208 3208 3208 3208 3207 3207 3207 3206 3206 3206 3205 3205 3205 3205 3205 3204 3204 3204 3203 3203 3203 3202 3202 3202 3202 3201 3201 3201 3200 3200 3200 3200 3199 3199 3198 3198 3197 3197 3196 3196 3195 3195 3195 3194 3194 3193 3193 3192 3192 3191 3191 3190 3190 3190 3189 3189 3189 3189 3188 3188 3187 3187 3187 3186 3186 3185 3185 3185 3184 3184 3184 3183 3183 3182 3182 3182 3181 3181 3180 3180
3211 3211 3210 3210 3210 3210 3210 3210 3210 3210 3210 3209 3209 3209 3209 3209 3209 3208 3208 3208 3208 3207 3207 3207 3206 3206 3206 3206 3205 3205 3205 3205 3205 3204 3204 3204 3203 3203 3203 3203 3202 3202 3202 3201 3201 3200 3200 3200 3200 3200 3200 3199 3199 3199 3198 3198 3197 3197 3196 3196 3195 3195 3195 3194 3194 3193 3193 3192 3192 3191 3191 3190 3190 3189 3189 3189 3188 3187 3187 3187 3187 3187 3186 3186 3185 3185 3185 3184 3184 3183 3183 3183 3183 3182 3182 3181 3181 3180 3180 3180 3179 3179 3178
3210 3210 3209 3209 3209 3209 3209 3209 3209 3208 3208 3208 3208 3208 3207 3207 3207 3207 3207 3206 3206 3206 3205 3205 3205 3205 3205 3204 3204 3204 3203 3203 3203 3203 3202 3202 3202 3202 3201 3201 3201 3200 3200 3200 3200 3199 3199 3199 3199 3198 3198 3198 3198 3197 3197 3196 3196 3195 3195 3194 3194 3193 3193 3193 3192 3192 3191 3191 3190 3190 3189 3189 3188 3188 3188 3187 3187 3186 3185 3185 3185 3185 3185 3184 3184 3183 3183 3182 3182 3182 3181 3181 3181 3181 3180 3180 3180 3179 3178 3178 3177 3177 3177
3208 3208 3208 3208 3208 3208 3208 3207 3207 3207 3207 3207 3207 3206 3206 3206 3205 3205 3205 3205 3205 3204 3204 3204 3203 3203 3203 3203 3202 3202 3202 3202 3201 3201 3201 3200 3200 3200 3200 3200 3199 3199 3199 3198 3198 3198 3198 3197 3197 3197 3197 3196 3196 3196 3195 3195 3195 3194 3193 3193 3192 3192 3191 3191 3191 3190 3190 3190 3189 3189 3188 3187 3187 3186 3186 3186 3185 3185 3184 3184 3183 3183 3183 3182 3182 3181 3181 3181 3180 3180 3180 3180 3179 3179 3179 3178 3178 3177 3176 3176 3175 3175 3175
3207 3207 3207 3207 3207 3206 3206 3206 3206 3205 3205 3205 3205 3205 3205 3204 3204 3204 3203 3203 3203 3202 3202 3202 3202 3201 3201 3201 3201 3201 3200 3200 3200 3200 3200 3199 3199 3199 3198 3198 3198 3197 3197 3197 3197 3196 3196 3196 3196 3195 3195 3195 3195 3194 3194 3194 3193 3192 3192 3191 3191 3190 3190 3190 3189 3189 3188 3188 3187 3187 3187 3186 3185 3185 3185 3184 3184 3183 3183 3182 3182 3181 3181 3180 3180 3180 3179 3179 3179 3178 3178 3178 3177 3177 3177 3176 3176 3175 3175 3174 3174 3173 3173
3206 3206 3205 3205 3205 3205 3205 3204 3204 3204 3204 3204 3204 3203 3203 3203 3202 3202 3201 3201 3201 3201 3200 3200 3200 3200 3200 3200 3200 3199 3199 3199 3199 3199 3198 3198 3197 3197 3197 3196 3196 3196 3196 3195 3195 3195 3195 3195 3194 3194 3194 3194 3193 3193 3192 3192 3192 3191 3191 3190 3190 3189 3189 3188 3188 3187 3187 3186 3186 3185 3185 3185 3184 3184 3183 3183 3182 3182 3181 3181 3180 3180 3179 3179 3178 3178 3177 3177 3177 3176 3176 3176 3175 3175 3175 3175 3174 3174 3173 3173 3172 3171 3171
3205 3205 3204 3204 3204 3203 3203 3203 3203 3203 3202 3202 3202 3202 3201 3201 3200 3200 3200 3200 3199 3199 3199 3199 3198 3198 3198 3198 3198 3198 3198 3198 3197 3197 3197 3196 3196 3195 3195 3195 3195 3194 3194 3194 3194 3194 3193 3193 3193 3193 3192 3192 3192 3191 3191 3190 3190 3190 3190 3189 3189 3188 3187 3187 3186 3186 3185 3185 3184 3184 3183 3183 3182 3182 3181 3181 3180 3180 3180 3179 3178 3178 3177 3177 3176 3176 3175 3175 3175 3174 3174 3174 3173 3173 3173 3172 3172 3172 3171 3171 3171 3170 3169
3203 3203 3203 3202 3202 3202 3201 3201 3201 3201 3201 3200 3200 3200 3200 3199 3199 3199 3198 3198 3197 3197 3197 3197 3197 3197 3197 3197 3196 3196 3196 3196 3196 3196 3195 3195 3195 3194 3194 3193 3193 3193 3193 3193 3192 3192 3192 3191 3191 3191 3191 3191 3190 3190 3190 3189 3189 3188 3188 3188 3187 3187 3186 3185 3185 3184 3184 3183 3182 3182 3181 3181 3181 3180 3180 3179 3179 3178 3178 3177 3176 3176 3175 3175 3174 3174 3173 3173 3172 3172 3172 3171 3171 3171 3170 3170 3170 3169 3169 3169 3169 3169 3168
3202 3202 3201 3201 3201 3200 3200 3200 3200 3199 3199 3199 3199 3198 3198 3198 3197 3197 3196 3196 3196 3195 3195 3195 3195 3195 3195 3195 3195 3195 3195 3194 3194 3194 3194 3193 3193 3192 3192 3191 3191 3191 3191 3191 3191 3190 3190 3190 3190 3190 3189 3189 3189 3189 3188 3188 3187 3187 3187 3186 3186 3185 3185 3184 3183 3183 3182 3181 3180 3180 3180 3179 3179 3178 3178 3178 3177 3176 3176 3175 3175 3174 3174 3173 3172 3172 3171 3171 3170 3170 3170 3169 3169 3168 3168 3168 3167 3167 3166 3166 3166 3166 3166
3201 3200 3200 3200 3199 3199 3199 3198 3198 3198 3198 3197 3197 3196 3196 3196 3195 3195 3195 3195 3194 3194 3194 3194 3194 3194 3194 3194 3194 3193 3193 3193 3192 3192 3192 3191 3191 3190 3190 3190 3190 3190 3189 3189 3189 3189 3189 3188 3188 3188 3188 3188 3188 3187 3187 3186 3186 3185 3185 3185 3185 3184 3183 3183 3182 3181 3180 3180 3179 3178 3178 3177 3177 3176 3176 3175 3175 3175 3174 3173 3173 3172 3172 3171 3170 3170 3170 3169 3169 3168 3167 3167 3166 3166 3165 3165 3165 3164 3164 3163 3163 3163 3163
3200 3199 3199 3199 3198 3197 3197 3197 3197 3196 3196 3196 3195 3195 3195 3194 3194 3194 3193 3193 3193 3193 3192 3192 3192 3192 3192 3192 3192 3192 3191 3191 3190 3190 3190 3190 3189 3189 3188 3188 3188 3188 3187 3187 3187 3187 3187 3187 3186 3186 3186 3186 3186 3186 3185 3185 3185 3184 3184 3183 3183 3182 3182 3181 3180 3180 3179 3178 3177 3177 3176 3175 3175 3175 3174 3173 3173 3172 3172 3171 3171 3170 3170 3169 3169 3168 3168 3167 3167 3166 3165 3165 3165 3164 3164 3163 3162 3162 3161 3161 3160 3160 3160
3198 3198 3198 3197 3197 3196 3196 3195 3195 3195 3195 3194 3194 3194 3193 3193 3192 3192 3192 3192 3191 3191 3191 3191 3191 3191 3191 3191 3190 3190 3190 3189 3189 3188 3188 3188 3187 3187 3187 3186 3186 3186 3186 3185 3185 3185 3185 3185 3185 3185 3185 3185 3185 3184 3184 3183 3183 3183 3182 3182 3181 3180 3180 3179 3179 3178 3177 3176 3176 3175 3175 3174 3173 3173 3172 3171 3171 3170 3170 3169 3168 3168 3167 3167 3166 3166 3165 3165 3165 3164 3163 3163 3162 3162 3161 3161 3160 3160 3159 3159 3158 3158 3157
3197 3197 3196 3196 3195 3195 3195 3194 3194 3193 3193 3193 3192 3192 3192 3191 3191 3190 3190 3190 3190 3190 3190 3190 3189 3189 3190 3189 3189 3189 3188 3188 3187 3187 3186 3186 3185 3185 3185 3185 3185 3184 3184 3184 3184 3184 3183 3183 3183 3183 3183 3183 3183 3183 3182 3182 3181 3181 3180 3180 3179 3179 3178 3177 3177 3176 3175 3175 3174 3174 3173 3173 3172 3171 3170 3170 3169 3168 3167 3167 3166 3165 3165 3165 3164 3163 3163 3162 3162 3161 3161 3160 3160 3159 3159 3158 3158 3157 3157 3156 3156 3156 3155
3196 3195 3195 3195 3194 3194 3193 3193 3192 3192 3191 3191 3191 3190 3190 3190 3189 3189 3189 3188 3188 3188 3188 3188 3188 3188 3188 3188 3188 3187 3187 3186 3186 3185 3185 3184 3184 3184 3183 3183 3183 3182 3182 3182 3182 3182 3182 3182 3182 3182 3182 3181 3181 3181 3180 3180 3180 3179 3179 3178 3178 3177 3176 3175 3175 3174 3174 3173 3173 3172 3171 3171 3170 3169 3169 3168 3167 3166 3165 3165 3164 3163 3163 3162 3161 3161 3160 3160 3159 3159 3158 3158 3157 3157 3156 3156 3155 3155 3155 3154 3154 3153 3153
3194 3194 3194 3193 3193 3192 3192 3191 3191 3190 3190 3190 3189 3189 3189 3188 3188 3187 3187 3186 3186 3186 3187 3186 3186 3186 3186 3186 3186 3185 3185 3185 3184 3184 3183 3183 3182 3182 3181 3181 3181 3180 3180 3180 3180 3180 3180 3180 3180 3180 3180 3180 3180 3179 3179 3178 3178 3177 3177 3176 3176 3175 3175 3174 3173 3172 3172 3171 3171 3170 3170 3169 3168 3167 3167 3166 3165 3165 3164 3163 3162 3161 3160 3160 3159 3159 3158 3157 3157 3156 3156 3155 3155 3154 3154 3154 3153 3153 3152 3151 3151 3151 3150
3193 3192 3192 3192 3191 3190 3190 3190 3189 3189 3188 3188 3188 3187 3187 3186 3186 3185 3185 3185 3185 3185 3185 3185 3185 3185 3185 3184 3184 3184 3183 3183 3182 3182 3181 3181 3181 3180 3180 3179 3179 3179 3179 3178 3178 3178 3178 3179 3179 3179 3178 3178 3177 3177 3177 3176 3176 3175 3175 3175 3174 3174 3173 3172 3171 3171 3170 3170 3169 3168 3167 3167 3166 3165 3165 3164 3163 3163 3162 3161 3160 3160 3159 3158 3157 3156 3156 3155 3155 3154 3153 3153 3152 3152 3152 3151 3151 3150 3150 3149 3149 3148 3148
3191 3191 3190 3190 3190 3189 3189 3188 3187 3187 3187 3186 3186 3186 3185 3185 3184 3184 3184 3183 3183 3183 3184 3184 3184 3184 3183 3183 3182 3182 3181 3180 3180 3180 3180 3179 3179 3179 3178 3178 3177 3177 3177 3177 3176 3176 3176 3177 3177 3176 3176 3176 3175 3175 3175 3174 3174 3174 3173 3173 3172 3172 3171 3170 3170 3169 3168 3168 3167 3166 3165 3165 3164 3163 3163 3162 3161 3161 3160 3159 3159 3158 3157 3156 3155 3154 3154 3153 3152 3151 3151 3150 3150 3150 3149 3149 3149 3148 3148 3147 3147 3146 3146
3190 3189 3189 3189 3188 3188 3187 3186 3186 3185 3185 3185 3185 3184 3184 3183 3183 3182 3182 3182 3182 3182 3182 3182 3182 3181 3181 3181 3180 3180 3179 3179 3178 3178 3178 3177 3177 3176 3176 3176 3175 3175 3175 3175 3175 3175 3175 3175 3175 3175 3174 3174 3173 3173 3173 3172 3172 3172 3171 3171 3170 3170 3169 3169 3168 3167 3166 3165 3165 3164 3163 3163 3162 3161 3161 3160 3160 3159 3158 3158 3157 3156 3155 3154 3153 3152 3152 3151 3150 3149 3149 3148 3148 3147 3147 3147 3146 3146 3145 3145 3145 3144 3144
3188 3187 3187 3187 3186 3186 3185 3185 3184 3184 3184 3183 3183 3182 3182 3182 3181 3181 3180 3180 3180 3180 3180 3180 3180 3180 3179 3179 3179 3178 3178 3177 3176 3176 3175 3175 3175 3175 3174 3174 3174 3173 3173 3173 3173 3173 3173 3173 3173 3173 3172 3172 3171 3171 3171 3171 3170 3170 3170 3169 3169 3168 3167 3167 3166 3165 3165 3164 3163 3162 3161 3161 3160 3160 3159 3158 3158 3157 3156 3156 3155 3154 3154 3153 3151 3150 3150 3149 3148 3147 3146 3146 3145 3145 3145 3145 3144 3144 3144 3143 3143 3142 3142
3186 3186 3185 3185 3185 3184 3184 3183 3183 3182 3182 3181 3181 3181 3180 3180 3180 3179 3179 3178 3178 3178 3178 3177 3177 3177 3177 3177 3177 3177 3176 3175 3175 3174 3174 3173 3173 3173 3172 3172 3172 3172 3171 3171 3171 3171 3171 3171 3171 3171 3170 3170 3170 3170 3169 3169 3169 3168 3168 3167 3167 3166 3165 3165 3164 3163 3163 3162 3161 3160 3160 3159 3158 3158 3157 3157 3156 3155 3155 3154 3153 3152 3152 3151 3150 3149 3148 3147 3146 3145 3144 3144 3143 3143 3142 3142 3142 3142 3142 3141 3141 3140 3140
3184 3184 3184 3183 3183 3182 3182 3181 3181 3180 3180 3180 3179 3179 3179 3178 3178 3177 3177 3176 3176 3176 3175 3175 3175 3175 3175 3175 3175 3175 3175 3174 3173 3172 3172 3171 3171 3171 3170 3170 3170 3170 3170 3170 3170 3170 3170 3169 3169 3169 3169 3169 3168 3168 3168 3168 3167 3167 3166 3166 3165 3165 3164 3163 3162 3162 3161 3160 3159 3159 3158 3157 3157 3156 3155 3155 3154 3154 3153 3152 3151 3150 3150 3149 3148 3147 3146 3145 3144 3143 3142 3142 3141 3140 3140 3140 3140 3140 3140 3139 3139 3138 3138
3182 3182 3182 3181 3181 3180 3180 3180 3179 3179 3178 3178 3178 3177 3177 3176 3176 3175 3175 3175 3174 3174 3174 3173 3173 3173 3173 3173 3173 3173 3173 3172 3172 3171 3170 3170 3169 3169 3168 3168 3168 3167 3168 3168 3168 3168 3168 3168 3167 3167 3167 3167 3167 3167 3166 3166 3166 3165 3165 3164 3164 3163 3162 3162 3161 3160 3160 3159 3158 3157 3156 3156 3155 3155 3154 3153 3152 3151 3151 3150 3149 3148 3147 3146 3145 3145 3144 3143 3142 3141 3140 3140 3139 3138 3138 3137 3137 3137 3137 3137 3137 3136 3135
3180 3180 3180 3180 3179 3179 3178 3178 3177 3177 3176 3176 3176 3175 3175 3175 3174 3174 3173 3173 3172 3172 3172 3171 3171 3171 3171 3171 3171 3171 3170 3170 3170 3170 3169 3168 3167 3167 3166 3166 3166 3165 3165 3165 3165 3166 3166 3166 3166 3166 3165 3165 3165 3165 3165 3165 3164 3164 3163 3163 3162 3161 3161 3160 3160 3159 3158 3157 3157 3156 3155 3154 3154 3153 3152 3151 3150 3150 3149 3148 3147 3146 3145 3144 3143 3142 3141 3141 3140 3139 3139 3138 3137 3136 3135 3135 3135 3135 3135 3135 3134 3134 3133
3179 3178 3178 3178 3177 3177 3176 3175 3175 3175 3174 3174 3174 3174 3173 3173 3173 3172 3172 3171 3171 3170 3170 3170 3170 3169 3169 3169 3169 3169 3169 3169 3168 3168 3167 3166 3166 3165 3165 3164 3164 3163 3163 3163 3163 3163 3164 3164 3164 3164 3164 3164 3164 3164 3164 3163 3163 3162 3162 3161 3161 3160 3160 3159 3158 3157 3157 3156 3155 3154 3154 3153 3152 3151 3150 3150 3149 3148 3147 3146 3145 3144 3143 3142 3141 3140 3139 3138 3137 3137 3136 3135 3135 3134 3133 3133 3132 3132 3132 3132 3131 3131 3131
3177 3176 3176 3176 3175 3175 3174 3173 3173 3173 3172 3172 3172 3171 3171 3171 3171 3170 3170 3170 3170 3169 3169 3168 3168 3168 3167 3167 3167 3167 3167 3166 3166 3166 3165 3165 3164 3164 3163 3163 3162 3161 3160 3160 3160 3161 3161 3161 3162 3162 3162 3162 3162 3162 3162 3162 3161 3161 3160 3160 3159 3159 3158 3157 3156 3156 3155 3154 3153 3153 3152 3151 3150 3149 3148 3147 3146 3145 3145 3144 3143 3141 3140 3140 3139 3137 3136 3136 3135 3134 3134 3133 3133 3132 3131 3130 3130 3130 3129 3129 3129 3129 3128
3175 3175 3174 3174 3173 3172 3172 3171 3171 3170 3170 3170 3170 3170 3169 3169 3169 3169 3168 3168 3168 3167 3167 3166 3166 3166 3166 3165 3165 3165 3165 3165 3165 3164 3164 3163 3162 3162 3162 3161 3161 3160 3159 3159 3159 3158 3158 3159 3159 3160 3160 3160 3161 3160 3160 3160 3160 3160 3159 3158 3158 3157 3156 3156 3155 3154 3153 3152 3152 3151 3150 3149 3148 3147 3146 3145 3145 3143 3142 3141 3140 3139 3138 3137 3136 3135 3134 3133 3132 3132 3131 3131 3130 3130 3129 3129 3128 3127 3127 3126 3126 3126 3126
3173 3172 3172 3172 3171 3170 3170 3169 3169 3168 3168 3168 3168 3167 3167 3167 3167 3166 3166 3166 3166 3165 3165 3165 3165 3165 3165 3164 3164 3164 3163 3163 3163 3162 3162 3161 3161 3160 3160 3160 3159 3159 3158 3158 3157 3157 3156 3156 3156 3157 3157 3157 3158 3158 3159 3158 3158 3158 3157 3157 3156 3155 3155 3154 3153 3152 3151 3150 3150 3149 3148 3147 3146 3145 3144 3143 3142 3141 3140 3139 3138 3137 3136 3135 3134 3133 3132 3131 3130 3129 3129 3128 3128 3127 3127 3126 3125 3125 3125 3124 3124 3123 3123
3171 3170 3170 3170 3169 3169 3168 3167 3167 3166 3166 3166 3165 3165 3165 3165 3165 3165 3164 3164 3164 3163 3163 3163 3163 3163 3162 3162 3162 3162 3161 3161 3161 3160 3160 3159 3159 3159 3159 3158 3157 3157 3157 3156 3156 3155 3155 3155 3154 3154 3154 3154 3155 3155 3156 3156 3156 3155 3155 3155 3154 3154 3153 3152 3151 3150 3150 3149 3148 3147 3146 3145 3144 3143 3142 3141 3140 3139 3138 3137 3135 3135 3133 3132 3131 3130 3129 3129 3128 3127 3126 3125 3125 3125 3124 3124 3123 3123 3122 3121 3121 3121 3120
3169 3168 3168 3167 3167 3166 3166 3165 3165 3164 3164 3164 3164 3163 3163 3163 3163 3162 3162 3162 3162 3161 3161 3161 3161 3161 3160 3160 3160 3160 3159 3160 3159 3158 3158 3157 3157 3157 3156 3156 3155 3155 3155 3155 3154 3154 3153 3153 3153 3152 3152 3152 3152 3152 3153 3154 3154 3154 3153 3152 3152 3151 3151 3150 3150 3149 3148 3147 3146 3145 3145 3143 3142 3141 3140 3139 3137 3136 3135 3134 3133 3132 3131 3130 3129 3128 3127 3126 3125 3125 3124 3123 3123 3122 3122 3121 3120 3120 3120 3119 3119 3118 3118
3166 3166 3165 3165 3165 3164 3164 3163 3163 3163 3162 3162 3162 3161 3161 3161 3161 3160 3160 3160 3160 3159 3159 3159 3159 3159 3159 3158 3158 3158 3157 3157 3157 3156 3156 3155 3155 3155 3155 3154 3154 3154 3153 3153 3153 3152 3152 3151 3151 3150 3150 3150 3149 3149 3149 3150 3151 3151 3150 3150 3150 3149 3149 3148 3147 3146 3145 3145 3144 3143 3142 3141 3140 3139 3137 3136 3135 3134 3133 3132 3130 3130 3129 3128 3127 3126 3125 3124 3123 3123 3122 3121 3120 3120 3119 3119 3118 3117 3117 3116 3116 3115 3115